This demonstration page uses our WeatherBlox Daily Observations layout. Learn more.

Left ArrowRight Arrow

Hourly Observations for January 19, 2015

Temp ( °F °C ) Dew Point ( °F °C ) Humidity (%) Winds ( mph kmh ) Pressure ( in mb ) Visibility ( mi km ) Precip ( " mm )
12:53 am 00:53 Clear 33 0.6 26 -3.3 75 75 Calm 30.14 1021 10 16 0.00 0.00
1:53 am 01:53 Clear 33 0.6 26 -3.3 75 75 Calm 30.15 1021 10 16 0.00 0.00
2:53 am 02:53 Clear 32 0 26 -3.3 79 79 Calm 30.15 1021 10 16 0.00 0.00
3:53 am 03:53 Clear 33 0.6 25 -3.9 72 72 Calm 30.14 1021 10 16 0.00 0.00
4:53 am 04:53 Clear 31 -0.6 25 -3.9 79 79 Calm 30.14 1021 10 16 0.00 0.00
5:53 am 05:53 Clear 32 0 25 -3.9 75 75 Calm 30.15 1021 10 16 0.00 0.00
6:53 am 06:53 Clear 31 -0.6 25 -3.9 79 79 Calm 30.15 1021 10 16 0.00 0.00
7:53 am 07:53 Sunny 30 -1.1 24 -4.4 79 79 Calm 30.15 1021 10 16 0.00 0.00
8:53 am 08:53 Sunny 34 1.1 28 -2.2 79 79 Calm 30.15 1021 10 16 0.00 0.00
9:53 am 09:53 Sunny 42 5.6 27 -2.8 55 55 SW 5 7 30.16 1021 10 16 0.00 0.00
10:53 am 10:53 Sunny 51 10.6 27 -2.8 39 39 SW 6 9 30.16 1021 10 16 0.00 0.00
11:53 am 11:53 Sunny 58 14.4 27 -2.8 31 31 SW 6 9 30.13 1020 10 16 0.00 0.00
12:53 pm 12:53 Sunny 62 16.7 24 -4.4 23 23 SSW 12 19 30.09 1019 10 16 0.00 0.00
1:53 pm 13:53 Sunny 64 17.8 21 -6.1 19 19 WSW 9 15 30.05 1018 10 16 0.00 0.00
2:53 pm 14:53 Sunny 65 18.3 19 -7.2 17 17 SW 10 17 30.02 1017 10 16 0.00 0.00
3:53 pm 15:53 Sunny 66 18.9 19 -7.2 16 16 WSW 8 13 30.01 1016 10 16 0.00 0.00
4:53 pm 16:53 Sunny 65 18.3 18 -7.8 16 16 WSW 8 13 30.01 1016 10 16 0.00 0.00
5:53 pm 17:53 Sunny 63 17.2 22 -5.6 21 21 SW 6 9 30.01 1016 10 16 0.00 0.00
6:53 pm 18:53 Clear 60 15.6 22 -5.6 23 23 SW 5 7 30.02 1017 10 16 0.00 0.00
7:53 pm 19:53 Clear 52 11.1 26 -3.3 37 37 Calm 30.03 1017 10 16 0.00 0.00
8:53 pm 20:53 Clear 55 12.8 23 -5 29 29 SSW 5 7 30.02 1017 10 16 0.00 0.00
9:53 pm 21:53 Clear 50 10 26 -3.3 39 39 Calm 30.02 1017 10 16 0.00 0.00
10:53 pm 22:53 Clear 50 10 25 -3.9 38 38 Calm 30.01 1016 10 16 0.00 0.00
11:53 pm 23:53 Clear 50 10 25 -3.9 38 38 SSW 5 7 30.01 1016 10 16 0.00 0.00

Powered by AerisWeather